Regional Weather Roundup
Issued by NWS

Home | Current Version | Previous Version | Graphics & Text | Print | Product List | Glossary On
Versions: 1 2 3 4 5 6 7 8 9 10 11 12 13 14 15 16 17 18 19 20 21 22 23 24 25 26 27 28 29 30 31 32 33 34 35 36 37 38 39 40 41 42 43 44 45 46 47 48 49 50
000
ASUS43 KTOP 040759
RWRKS

WEATHER ROUNDUP FOR KANSAS
NATIONAL WEATHER SERVICE GOODLAND KS
300 AM CDT TUE AUG 04 2015

NOTE:  "FAIR" INDICATES FEW OR NO CLOUDS BELOW 12,000 FEET WITH NO
SIGNIFICANT WEATHER AND/OR OBSTRUCTIONS TO VISIBILITY.

KSZ001>006-013>018-027>032-041>047-040900-
NORTHWEST KANSAS

CITY           SKY/WX    TMP DP  RH WIND       PRES   REMARKS
GOODLAND       CLOUDY    66  60  81 SE6       29.99F
HAYS           MOCLDY    73  63  68 S5        29.94R
HILL CITY      PTCLDY    73  65  75 W5        29.95R
RUSSELL        MOCLDY    74  68  81 S8        29.91F
$$

KSZ061>065-074>080-084>089-040900-
SOUTHWEST KANSAS

CITY           SKY/WX    TMP DP  RH WIND       PRES   REMARKS
DODGE CITY     CLOUDY    72  66  81 S7        29.97R
ELKHART          N/A     67  59  76 W6          N/A
GARDEN CITY    CLOUDY    72  67  84 S7        29.97R
GREAT BEND     CLOUDY    73  66  78 S6        29.94S
LIBERAL        CLOUDY    72  64  78 W9        29.99R
PRATT          CLOUDY    73  66  78 S6        29.96S
$$

KSZ066>073-081>083-090>101-040900-
SOUTHEAST KANSAS

CITY           SKY/WX    TMP DP  RH WIND       PRES   REMARKS
CHANUTE        PTCLDY    69  67  93 S6        29.94S
COFFEYVILLE    MOCLDY    71  68  90 CALM      29.93S
HUTCHINSON     CLOUDY    75  67  76 S6        29.94S
NEWTON         CLOUDY    75  63  64 S7        29.95F
PARSONS        PTCLDY    67  67 100 CALM      29.94F
WICHITA INTL   CLOUDY    74  67  78 S7        29.92F
WICHITA JABRA  CLOUDY    74  67  78 S8        29.93F
$$

KSZ007>012-019>026-033>040-048>060-102>105-040900-
NORTHEAST KANSAS

CITY           SKY/WX    TMP DP  RH WIND       PRES   REMARKS
CONCORDIA      PTCLDY    72  71  97 E5        29.92F FOG
EMPORIA        MOCLDY    72  67  84 S8        29.92F
LAWRENCE       PTCLDY    72  69  90 E5        29.92F
MANHATTAN      PTCLDY    74  71  91 CALM      29.91F
OLATHE IND     PTCLDY    74  71  91 CALM      29.94F
OLATHE EXE     PTCLDY    73  69  87 CALM      29.93F
SALINA         CLOUDY    75  68  78 S6        29.91S
TOPEKA BILLARD PTCLDY    74  71  91 CALM      29.92F
TOPEKA FORBES  PTCLDY    75  69  81 S3        29.92F
$$



USA.gov is the U.S. government's official web portal to all federal, state and local government web resources and services.